Wind_Speed
6 6 3 3 4 5 2 2 3 4 5 0 8 4 6 4 2 3 11 16 20 18 15 12 11 11 11 13 14 14 16 15 16 15 15 15 14 14 15 14 14 13 13 13 13 13 15 15 14
8 7 3 1 5 4 3 1 6 3 5 14 8 6 4 4 4 8 11 18 20 19 16 13 12 11 12 13 13 14 14 14 14 13 13 14 14 13 14 13 12 12 12 12 13 12 12 13 11
6 3 2 3 3 3 4 1 6 10 9 4 5 6 3 3 6 11 12 24 21 19 16 13 12 11 11 13 13 12 12 12 12 11 12 13 13 13 13 13 12 10 10 11 11 11 11 11 9
2 1 2 3 4 2 1 4 12 6 6 7 10 7 5 11 8 7 23 23 22 19 16 13 11 11 11 13 11 12 11 11 11 11 11 12 12 12 12 11 11 10 8 10 11 11 10 8 6
2 1 3 3 3 2 4 4 5 4 5 6 2 4 5 3 14 24 20 22 22 19 16 14 12 11 12 12 12 12 11 10 10 11 11 11 11 13 12 11 10 9 8 11 11 9 8 7 5
1 2 4 2 2 3 4 4 3 8 8 9 9 6 4 14 24 19 20 22 20 20 17 15 12 12 11 11 11 12 11 9 8 10 10 10 12 14 13 12 10 9 9 10 9 7 6 5 6
3 3 2 3 4 3 3 4 4 4 8 5 7 5 4 9 16 17 17 18 18 18 17 16 14 12 11 12 10 10 8 7 8 9 9 10 11 12 12 12 12 11 10 10 8 6 4 5 6
3 3 3 3 5 3 6 3 8 7 5 4 7 4 7 9 17 17 16 16 16 16 17 16 15 13 11 10 10 10 7 7 7 8 8 9 9 9 10 11 12 11 9 7 5 3 4 5 7
2 4 3 5 7 5 8 5 7 6 8 2 3 5 13 24 22 20 17 14 14 15 17 19 18 16 13 11 9 9 7 5 6 6 6 7 7 8 8 9 8 8 6 4 2 2 3 4 6
4 3 2 4 6 8 10 9 6 6 6 4 10 16 21 22 22 19 16 15 16 16 19 20 19 16 13 12 10 9 8 6 6 6 5 6 5 5 6 7 7 6 4 3 3 3 4 6 7
3 2 5 2 7 13 11 6 2 13 2 5 18 17 17 17 14 13 12 17 20 20 19 21 21 17 14 12 10 9 8 8 7 6 5 3 3 3 5 7 9 12 7 4 1 4 6 7 8
3 4 3 1 9 10 12 8 5 4 2 14 19 19 17 13 14 15 16 19 19 21 22 22 22 18 14 11 10 10 9 8 6 4 3 1 2 5 10 11 13 12 11 8 7 6 4 5 10
6 4 5 8 9 12 11 6 6 1 13 15 17 17 14 11 11 12 15 18 21 23 22 23 22 20 16 12 11 11 9 7 5 3 2 1 2 6 8 9 10 11 10 9 8 9 9 9 9
6 6 8 7 9 7 8 5 5 7 14 16 16 14 11 13 16 14 18 19 23 23 22 22 24 22 18 15 14 12 8 7 5 4 3 2 2 6 8 7 10 11 10 8 10 12 13 10 9
4 2 3 4 4 3 9 2 3 14 16 17 14 12 11 13 15 19 22 24 25 24 23 25 24 23 20 17 15 12 9 8 7 6 5 4 3 5 6 7 10 12 12 8 11 12 11 6 5
4 4 2 2 4 5 4 4 6 15 17 15 14 11 10 11 20 20 23 24 25 25 24 25 27 27 23 19 16 13 11 11 11 10 9 7 6 7 8 8 11 12 12 12 12 14 12 10 9
3 2 2 3 5 5 2 1 7 11 14 13 12 12 12 11 11 19 23 27 27 27 27 27 28 29 26 22 19 16 14 14 13 12 13 12 10 8 11 12 11 11 11 12 13 13 13 14 14
4 2 2 5 6 4 5 3 11 11 11 13 12 11 10 8 13 23 26 27 27 28 27 27 28 27 25 21 18 17 17 16 18 16 15 14 14 13 14 14 13 12 12 11 12 14 14 14 14
4 3 3 4 7 4 6 5 12 13 9 10 9 9 9 11 14 24 26 28 29 28 28 29 30 29 25 24 22 20 18 15 17 18 19 17 16 16 16 17 16 15 13 12 13 14 14 15 17
4 3 5 2 5 4 5 6 13 15 15 13 13 12 10 5 7 16 23 27 31 34 33 32 31 31 28 27 24 22 20 18 16 17 19 20 21 19 16 14 16 17 16 15 13 13 14 15 15
2 6 4 3 5 3 5 2 9 11 6 7 10 7 6 9 9 9 19 26 27 30 35 35 34 32 31 27 26 23 19 19 19 19 19 18 19 20 19 17 17 18 18 18 17 16 14 14 16
3 2 5 8 4 3 2 4 3 10 15 14 9 9 7 7 7 7 13 18 24 32 32 34 34 33 32 29 28 27 24 22 26 25 23 20 19 19 19 18 19 19 21 22 22 20 18 14 14
3 4 4 4 5 4 4 3 5 3 11 15 14 12 6 6 8 9 16 23 22 24 28 30 30 32 31 30 29 27 26 26 23 23 22 20 20 20 22 23 21 23 23 23 25 25 23 19 15
5 6 8 5 3 2 3 4 3 3 5 7 6 8 8 8 6 6 9 17 19 17 20 23 26 26 26 25 25 27 28 28 25 23 24 25 26 25 25 25 25 24 27 30 28 25 26 24 21
7 6 3 3 3 5 4 4 1 9 9 12 11 11 10 7 5 5 8 11 12 11 15 16 18 20 22 24 25 27 30 29 28 28 28 28 28 30 31 28 28 30 30 31 33 31 29 29 27
3 6 6 5 4 3 4 4 6 5 8 9 10 11 10 8 6 5 5 10 9 12 9 9 8 11 13 17 20 22 25 29 30 32 32 34 36 36 34 32 33 33 32 32 33 35 33 31 30
3 2 4 7 3 3 2 2 3 10 10 9 10 10 6 3 7 2 6 13 13 14 11 11 9 4 1 5 10 14 18 20 21 22 24 29 35 38 38 37 36 36 35 35 36 36 38 37 36
3 5 3 3 4 2 3 3 4 8 8 8 8 6 5 7 5 1 8 16 14 14 13 12 9 6 4 4 6 7 8 12 16 19 24 27 31 35 37 37 37 37 37 35 36 37 37 37 37
4 3 7 6 3 5 3 2 5 2 3 7 7 7 7 9 8 7 12 15 14 10 9 6 6 6 6 6 8 9 10 12 14 15 19 21 23 30 32 34 36 37 38 38 38 37 35 34 35
2 3 4 5 3 1 3 2 3 4 5 8 10 9 9 11 10 12 14 15 12 14 14 13 13 14 13 12 12 12 13 14 15 16 19 19 20 19 23 30 32 34 38 40 40 41 39 37 34
Wind_Direction
140 157 123 23 56 66 40 76 118 105 136 319 155 122 124 37 30 151 149 144 152 148 134 121 116 108 105 104 110 110 107 107 107 104 101 98 94 91 88 87 86 82 85 88 89 89 91 91 95
144 117 40 33 86 73 303 169 120 144 115 99 74 91 62 68 61 104 128 149 152 147 140 133 124 117 109 113 110 106 106 104 104 101 96 95 93 90 88 84 83 85 83 86 96 98 95 97 101
145 77 56 63 99 140 161 78 115 128 149 104 111 49 60 74 100 149 153 150 153 151 144 134 130 124 117 117 110 112 109 106 106 104 96 90 86 77 79 79 81 84 92 99 101 105 105 102 100
129 277 21 73 136 241 84 118 120 110 81 66 119 76 73 113 134 151 151 153 155 152 146 139 134 134 126 124 122 119 114 108 107 100 91 87 84 80 76 79 77 80 89 108 112 111 106 91 74
304 29 24 57 55 61 76 107 104 94 82 91 91 93 94 37 127 138 143 155 156 153 151 149 147 145 136 126 129 126 117 113 109 103 94 88 84 81 74 74 78 77 91 114 119 113 98 76 44
78 99 51 74 31 45 68 104 69 79 104 120 94 95 56 125 130 136 146 155 158 156 160 156 158 154 141 136 137 135 130 119 111 103 96 91 83 80 77 79 76 82 97 111 118 113 94 62 36
141 107 88 76 100 56 134 114 77 88 104 79 123 91 97 118 129 143 146 152 160 164 165 165 163 158 148 147 141 133 138 130 113 108 100 90 81 75 71 72 73 79 97 111 114 105 72 34 34
116 86 106 122 167 126 138 85 108 114 60 93 145 133 150 164 147 144 145 151 159 169 171 169 166 162 156 154 148 141 157 137 119 113 103 92 82 73 69 71 76 80 86 93 97 77 22 21 24
93 68 166 160 162 147 133 118 154 102 130 94 62 119 133 142 154 146 146 149 161 171 176 173 171 166 162 154 156 161 149 136 127 125 113 100 86 82 77 70 69 64 66 75 66 17 2 359 359
68 84 203 181 158 156 143 126 143 117 149 58 83 101 128 143 152 148 146 150 164 167 173 177 174 170 164 165 167 162 156 156 151 142 125 110 95 81 70 51 40 20 354 302 270 278 297 305 317
42 64 352 354 126 136 137 113 76 136 214 176 143 143 150 148 155 149 151 165 168 168 171 176 177 175 174 176 173 170 155 144 139 133 126 114 78 52 11 15 12 4 26 58 271 272 279 289 298
55 318 252 298 129 133 146 121 111 141 228 139 142 149 154 162 167 160 163 170 172 173 174 176 181 181 183 183 179 171 161 153 145 149 155 119 31 12 6 1 8 29 40 41 53 41 11 308 286
18 335 335 97 124 131 132 132 141 56 119 127 138 154 161 159 165 167 176 177 179 178 180 181 180 185 183 183 181 176 175 171 163 160 150 132 32 7 358 2 19 22 24 30 24 2 348 325 313
187 240 315 66 142 134 120 132 105 144 134 140 154 168 170 167 171 167 176 182 188 183 181 180 183 185 187 185 183 184 195 191 191 174 161 166 345 346 349 357 359 3 12 10 359 351 341 315 304
160 83 151 59 94 99 109 61 110 149 148 153 170 178 172 178 177 183 188 185 191 193 187 184 189 191 194 193 195 198 198 205 213 200 201 226 291 320 329 328 339 345 351 345 349 357 346 347 320
111 73 117 275 104 162 92 238 135 152 151 168 174 186 178 193 190 194 192 193 192 194 198 197 195 196 200 201 201 203 208 216 222 229 225 237 265 284 284 299 311 323 337 337 342 348 351 4 355
8 186 178 154 190 138 103 191 156 164 159 171 183 187 188 195 192 195 198 198 195 194 195 198 201 201 204 207 212 218 229 233 230 229 228 239 252 268 273 284 286 300 317 329 340 344 345 348 344
210 201 197 187 201 155 160 188 162 168 176 176 186 197 200 186 197 198 203 207 203 201 201 201 202 207 210 213 224 234 248 248 232 231 237 247 253 259 269 274 274 286 296 313 326 336 343 347 343
168 175 217 220 166 131 181 152 180 181 176 185 189 187 196 209 207 200 204 207 207 207 206 204 207 210 212 213 222 233 239 238 232 238 237 245 254 260 278 272 271 277 289 301 321 326 333 342 351
255 177 247 313 139 129 168 200 185 190 198 190 188 197 199 166 173 191 195 195 201 207 210 210 211 215 218 221 224 223 222 227 239 249 248 248 251 262 274 275 273 274 282 290 302 320 327 325 340
107 162 166 162 109 57 110 313 188 207 190 202 205 194 185 185 178 185 185 189 192 200 211 213 217 219 218 224 223 221 230 235 239 245 249 245 248 257 270 274 276 269 274 284 287 301 312 312 317
104 139 110 125 98 183 69 263 255 206 202 200 202 191 197 188 178 176 182 183 193 208 214 217 218 222 223 221 222 224 231 236 242 246 250 253 254 260 265 270 271 271 267 270 278 287 290 293 295
179 66 63 96 96 93 358 80 306 156 208 211 198 201 173 170 162 170 184 191 196 205 216 221 222 225 226 228 229 236 242 248 254 256 249 251 256 264 267 267 272 266 265 267 271 273 275 280 283
137 63 40 58 88 48 338 138 304 347 299 260 194 177 146 136 169 179 184 183 190 202 217 221 225 228 232 237 241 245 252 257 261 262 258 260 263 265 269 270 269 273 270 266 269 275 272 270 273
70 60 359 355 13 205 307 72 45 318 318 242 177 146 139 135 52 81 91 143 196 198 209 223 229 241 246 248 252 253 254 259 265 273 277 276 275 271 267 268 270 272 276 275 266 268 271 269 266
63 143 151 209 190 217 356 4 311 346 34 50 103 116 118 99 66 30 60 106 134 159 175 192 212 234 243 253 254 259 262 261 263 265 268 271 274 277 279 271 268 272 275 278 270 267 269 269 267
168 83 166 106 4 74 251 118 91 25 43 52 76 89 98 178 93 124 74 93 108 117 131 144 150 129 238 274 270 268 270 271 274 284 284 282 276 274 272 272 269 267 270 274 270 267 269 270 268
114 145 68 16 131 133 21 66 344 356 12 38 42 55 40 47 54 141 105 99 81 76 78 83 83 82 45 13 358 345 319 304 298 300 309 295 284 268 267 268 269 268 267 267 269 265 267 269 269
1 38 53 109 102 144 130 262 1 41 31 77 76 74 68 63 51 64 79 78 70 53 61 47 43 44 33 8 349 340 335 335 332 325 323 324 306 284 266 269 269 269 269 266 261 262 268 266 268
99 108 127 119 207 72 125 265 357 43 22 75 66 70 66 67 64 63 51 59 49 28 13 1 355 353 341 336 323 321 320 322 326 331 332 338 327 322 300 273 269 265 263 266 264 262 260 259 260
Height
766 767 768 767 790 794 806 797 783 793 793 782 784 791 800 802 806 822 808 811 816 820 823 825 827 828 829 830 830 831 831 832 833 833 833 834 834 834 834 835 835 835 836 836 837 838 838 839 839
767 769 770 771 800 815 810 786 792 785 785 782 787 792 801 811 805 810 812 814 818 822 825 828 830 831 832 832 833 833 834 835 836 836 836 836 837 837 837 837 837 838 839 839 840 841 841 841 842
769 771 777 784 800 812 806 784 787 784 780 784 794 794 800 812 811 812 812 815 819 824 827 830 832 833 834 835 835 836 838 838 838 839 839 839 840 839 839 840 840 841 841 841 842 842 843 843 844
772 773 778 795 798 786 788 784 781 786 783 784 791 806 804 808 810 811 814 818 821 826 829 832 834 835 836 837 838 839 841 841 841 841 841 842 842 842 842 843 843 843 843 844 844 845 845 846 846
774 777 793 793 791 781 781 780 781 788 790 792 792 811 813 812 811 814 817 821 824 828 831 833 836 837 838 839 840 842 843 844 844 844 844 845 845 844 845 845 845 845 845 846 847 848 848 848 848
779 782 803 808 796 785 782 779 782 790 793 795 799 808 817 816 815 818 820 823 827 830 833 835 837 838 840 841 842 844 845 846 847 847 847 848 847 847 848 848 848 848 848 849 850 850 850 850 850
780 788 800 798 801 794 787 779 789 795 797 799 796 814 818 819 819 820 823 826 829 833 835 837 839 841 842 843 845 847 848 848 849 849 850 850 850 851 851 851 851 851 851 852 852 852 852 852 851
776 782 793 793 802 798 783 784 786 792 800 794 796 817 821 818 820 822 825 829 832 835 837 839 841 843 845 846 848 849 850 851 851 851 852 853 853 854 854 854 854 855 855 855 855 854 854 854 853
772 795 803 793 794 791 781 791 788 787 795 794 797 803 808 815 819 823 827 830 833 835 838 840 842 845 847 848 850 851 852 853 853 853 854 855 856 856 856 856 857 858 858 857 857 857 856 856 855
781 797 787 773 775 781 782 786 790 796 799 805 806 808 813 817 820 823 826 829 832 835 838 841 844 846 848 850 852 853 853 854 855 856 856 858 857 858 858 858 859 859 859 858 858 858 858 857 856
782 790 777 768 766 771 783 788 786 798 806 802 807 811 815 819 823 826 829 830 832 835 839 843 846 847 850 852 853 854 855 856 857 858 858 859 859 860 859 860 860 859 858 858 858 858 858 857 857
785 776 772 766 766 775 785 785 795 795 796 794 802 808 815 820 823 826 829 831 833 835 838 842 845 849 851 853 854 855 856 858 859 860 860 861 860 860 860 860 860 859 859 859 859 858 858 858 858
783 776 767 763 769 775 780 791 795 799 795 800 807 812 816 822 825 828 830 833 834 836 838 841 844 848 851 853 855 856 858 859 860 861 862 862 862 862 862 862 862 861 861 861 860 859 859 858 857
779 778 774 770 775 779 791 794 793 802 799 804 808 813 817 820 823 828 830 833 835 837 839 843 845 847 850 852 854 856 858 860 861 861 862 863 864 864 863 863 863 863 862 861 861 860 858 857 856
777 786 778 777 780 788 785 802 803 798 801 808 812 813 818 822 824 824 827 830 833 836 839 841 845 848 850 852 854 856 858 859 861 861 862 863 864 865 865 864 865 864 864 863 862 861 859 857 856
788 793 806 784 781 787 790 818 801 798 804 812 813 815 819 821 821 824 827 830 832 836 839 842 844 846 849 852 854 855 857 859 860 862 862 863 864 865 865 865 866 865 864 863 862 861 860 858 858
798 814 807 798 783 786 794 813 800 799 805 812 813 815 816 819 822 824 826 828 831 834 837 840 843 845 848 851 853 855 857 858 859 861 862 863 864 864 865 866 866 866 865 864 863 862 861 860 858
811 809 803 805 793 789 801 805 801 800 805 809 812 813 815 817 817 820 823 827 831 834 838 841 843 846 849 852 854 855 856 857 858 860 861 862 863 864 864 865 865 865 865 864 864 862 862 861 859
784 796 799 791 783 793 800 805 803 799 804 810 812 813 815 814 813 817 820 824 829 833 836 838 841 844 848 850 851 853 854 856 857 858 859 861 862 862 863 863 864 864 864 864 863 862 862 861 859
788 800 801 785 784 791 803 805 800 797 797 801 807 809 811 814 814 815 818 821 824 827 832 836 838 842 845 847 849 851 852 854 855 856 857 858 860 861 861 861 862 862 862 863 863 863 862 861 861
788 799 794 796 793 794 803 813 806 798 799 802 801 803 806 808 812 813 814 817 822 825 828 831 835 838 841 845 848 850 851 852 853 853 854 855 856 858 859 859 859 860 860 861 861 861 861 861 860
793 778 786 798 808 829 802 843 816 804 803 801 804 804 805 805 806 810 814 818 820 821 825 829 832 835 839 842 846 847 848 849 849 850 852 853 854 855 855 856 856 856 858 858 859 859 859 859 859
789 781 789 796 818 818 819 836 825 808 812 801 798 799 802 804 804 808 810 812 816 820 824 828 831 834 837 841 843 845 847 847 847 848 849 850 851 852 852 853 853 853 853 854 855 856 857 857 857
781 793 810 824 831 846 835 842 843 832 822 807 799 800 804 807 808 806 809 812 816 820 824 827 830 833 836 840 843 844 845 846 846 846 846 846 846 847 848 848 849 849 849 849 850 851 852 853 853
792 816 850 848 854 855 842 844 827 819 806 796 796 801 805 807 814 814 814 815 818 821 822 826 828 832 835 837 839 840 841 843 843 844 843 842 841 841 841 842 844 844 844 844 845 845 846 847 848
803 812 847 853 865 853 835 853 840 811 803 799 797 801 804 811 815 820 820 816 819 819 822 826 827 830 831 834 836 836 837 837 838 838 838 836 835 834 835 835 836 837 837 838 838 839 839 840 841
802 820 816 854 858 855 844 830 818 816 813 810 809 807 811 812 814 820 823 820 823 822 825 825 828 829 831 832 832 833 833 833 833 834 832 830 827 826 827 827 828 829 830 830 831 831 832 833 834
790 807 828 846 857 862 850 845 846 831 832 823 821 820 819 816 821 825 826 827 830 830 830 831 831 831 832 832 832 832 832 832 831 828 827 822 819 819 818 819 820 821 822 823 824 823 823 825 825
810 816 838 847 855 861 872 858 839 840 833 831 829 827 826 827 827 829 830 832 833 837 836 836 835 834 833 833 833 832 832 831 828 826 823 819 815 814 814 814 814 813 813 814 815 816 816 816 818
801 813 828 843 847 863 859 863 841 838 835 830 831 831 832 832 833 834 836 837 839 837 837 836 834 832 833 831 832 831 830 828 826 823 820 816 813 810 809 808 807 806 805 805 805 806 806 807 808